Simultaneous Nadir Overpasses (SNOs) Predictions

Prediction of SNOs between AQUA and NOAA-19 Satellite Orbit:

Table of predicted SNOs for the next 14.0 days since TLE Epoch: 8/30/2019
Index Date (AQUA) Time (AQUA) Lat,Lon (AQUA) SZA (AQUA ) Date (NOAA-19) Time (NOAA-19) Lat,Lon (NOAA-19) SZA (NOAA-19 ) Distance(km) Time Diff (sec)
1 08/31/2019 14:18:55 80.28, -67.71 73.26 08/31/2019 14:18:09 80.28, -67.59 73.27 2.24 46
2 08/31/2019 15:08:21 -80.29, 99.82 106.72 08/31/2019 15:09:04 -80.29, 99.79 106.73 0.62 43
3 09/02/2019 19:52:38 -80.28, 28.87 105.96 09/02/2019 19:51:28 -80.27, 28.92 105.95 1.55 70
4 09/02/2019 20:42:05 80.26,-163.38 74.04 09/02/2019 20:42:32 80.29,-163.44 74.05 3.15 27
5 09/05/2019 02:15:48 -80.26, -66.80 105.17 09/05/2019 02:15:51 -80.28, -66.87 105.15 2.16 3
6 09/07/2019 07:49:33 80.28, 29.61 75.67 09/07/2019 07:49:19 80.27, 29.70 75.66 1.98 14
7 09/07/2019 08:38:58 -80.25,-162.49 104.37 09/07/2019 08:40:10 -80.37,-161.33 104.40 25.28 72
8 09/09/2019 13:23:15 -80.25, 126.50 103.58 09/09/2019 13:22:38 -80.27, 126.46 103.54 2.94 37
9 09/09/2019 14:12:43 80.27, -66.12 76.49 09/09/2019 14:13:42 80.28, -66.22 76.48 1.90 59
10 09/11/2019 18:57:00 80.27,-137.17 77.29 09/11/2019 18:56:06 80.24,-137.24 77.30 3.15 54




NCC Satellite Simultaneous Nadir Overpasses (SNOs) Prediction Service
